This is the latest recevied weather packets stored in our database for station/object R1ZAAG-14. If no packets are shown the sender has not sent any weather packets the latest 10 day(s).
| Time | Temp. | Humidity | Pressure | Rain* | Wind** | Luminosity | Snow |
|---|---|---|---|---|---|---|---|
| 1778283688 | 0.56° C | 100% | 1028.5 hPa | - | - | - | - |
| 1778282788 | 0.56° C | 85% | 1028.5 hPa | - | - | - | - |
| 1778281887 | 0.56° C | 82% | 1028.4 hPa | - | - | - | - |
| 1778280986 | 1.11° C | 81% | 1028.3 hPa | - | - | - | - |
| 1778280086 | 1.11° C | 78% | 1028.2 hPa | - | - | - | - |
| 1778279201 | 1.67° C | 75% | 1028.2 hPa | - | - | - | - |
| 1778278300 | 1.67° C | 72% | 1028.2 hPa | - | - | - | - |
| 1778277399 | 1.11° C | 73% | 1028 hPa | - | - | - | - |
| 1778276499 | 1.11° C | 73% | 1028.1 hPa | - | - | - | - |
| 1778275598 | 1.67° C | 76% | 1028 hPa | - | - | - | - |
| 1778274697 | 1.67° C | 75% | 1027.8 hPa | - | - | - | - |
| 1778272896 | 1.67° C | 78% | 1027.5 hPa | - | - | - | - |
| 1778271996 | 1.11° C | 77% | 1027.5 hPa | - | - | - | - |
| 1778271095 | 1.67° C | 74% | 1027.3 hPa | - | - | - | - |
| 1778270194 | 1.67° C | 74% | 1027.1 hPa | - | - | - | - |
| 1778269293 | 2.22° C | 73% | 1026.9 hPa | - | - | - | - |
| 1778268393 | 2.22° C | 72% | 1026.8 hPa | - | - | - | - |
| 1778266592 | 2.78° C | 70% | 1026.5 hPa | - | - | - | - |
| 1778265691 | 3.89° C | 65% | 1026.3 hPa | - | - | - | - |
| 1778264790 | 6.11° C | 60% | 1026.2 hPa | - | - | - | - |
| 1778263890 | 5.56° C | 62% | 1026.2 hPa | - | - | - | - |
| 1778262989 | 5° C | 63% | 1026 hPa | - | - | - | - |
| 1778262088 | 5.56° C | 60% | 1026 hPa | - | - | - | - |
| 1778261187 | 6.11° C | 58% | 1025.8 hPa | - | - | - | - |
| 1778260286 | 7.22° C | 49% | 1025.5 hPa | - | - | - | - |
* Rain since midnight (hover to see other rain measurements)
** Current wind speed in m/s (hover to see current wind gust speed)